owner,sensor,date,latitude,longitude,vertical_datum,wind_speed,wind_to_direction,wind_speed_of_gust,qcFlag 
SCCF RECON,ioos:station:SCCF:53:1,2014-11-01T00:00:00Z,26.6493,-81.8810,2.11,2.1,319.9,-9999.0,'1111122,1111122,1111122' 
SCCF RECON,ioos:station:SCCF:53:1,2014-11-01T00:15:00Z,26.6493,-81.8810,2.11,1.9,292.3,-9999.0,'1111122,1111122,1111122' 
SCCF RECON,ioos:station:SCCF:53:1,2014-11-01T00:30:00Z,26.6493,-81.8810,2.11,3.0,333.4,-9999.0,'1111122,1111122,1111122' 
SCCF RECON,ioos:station:SCCF:53:1,2014-11-01T00:45:00Z,26.6493,-81.8810,2.11,2.1,333.5,-9999.0,'1111122,1111122,1111122' 
SCCF RECON,ioos:station:SCCF:53:1,2014-11-01T01:00:00Z,26.6493,-81.8810,2.11,3.1,330.5,-9999.0,'1111122,1111122,1111122' 
SCCF RECON,ioos:station:SCCF:53:1,2014-11-01T01:15:00Z,26.6493,-81.8810,2.11,3.1,354.3,-9999.0,'1111122,1111122,1111122' 
SCCF RECON,ioos:station:SCCF:53:1,2014-11-01T01:30:00Z,26.6493,-81.8810,2.11,3.4,342.0,-9999.0,'1111122,1111122,1111122' 
SCCF RECON,ioos:station:SCCF:53:1,2014-11-01T01:45:00Z,26.6493,-81.8810,2.11,3.8,342.5,-9999.0,'1111122,1111122,1111122' 
SCCF RECON,ioos:station:SCCF:53:1,2014-11-01T02:00:00Z,26.6493,-81.8810,2.11,4.4,334.9,-9999.0,'1111122,1111122,1111122' 
SCCF RECON,ioos:station:SCCF:53:1,2014-11-01T02:15:00Z,26.6493,-81.8810,2.11,3.8,325.6,-9999.0,'1111122,1111122,1111122' 
SCCF RECON,ioos:station:SCCF:53:1,2014-11-01T02:30:00Z,26.6493,-81.8810,2.11,3.4,335.0,-9999.0,'1111122,1111122,1111122' 
SCCF RECON,ioos:station:SCCF:53:1,2014-11-01T02:45:00Z,26.6493,-81.8810,2.11,4.0,338.9,-9999.0,'1111122,1111122,1111122' 
SCCF RECON,ioos:station:SCCF:53:1,2014-11-01T03:00:00Z,26.6493,-81.8810,2.11,3.1,335.1,-9999.0,'1111122,1111122,1111122' 
SCCF RECON,ioos:station:SCCF:53:1,2014-11-01T03:15:00Z,26.6493,-81.8810,2.11,3.2,340.4,-9999.0,'1111122,1111122,1111122' 
SCCF RECON,ioos:station:SCCF:53:1,2014-11-01T03:30:00Z,26.6493,-81.8810,2.11,3.0,337.2,-9999.0,'1111122,1111122,1111122' 
SCCF RECON,ioos:station:SCCF:53:1,2014-11-01T03:45:00Z,26.6493,-81.8810,2.11,2.9,333.7,-9999.0,'1111122,1111122,1111122' 
SCCF RECON,ioos:station:SCCF:53:1,2014-11-01T04:00:00Z,26.6493,-81.8810,2.11,0.5,287.2,-9999.0,'1111122,1111122,1111122' 
SCCF RECON,ioos:station:SCCF:53:1,2014-11-01T04:15:00Z,26.6493,-81.8810,2.11,1.5,351.0,-9999.0,'1111122,1111122,1111122' 
SCCF RECON,ioos:station:SCCF:53:1,2014-11-01T04:30:00Z,26.6493,-81.8810,2.11,2.5,322.4,-9999.0,'1111122,1111122,1111122' 
SCCF RECON,ioos:station:SCCF:53:1,2014-11-01T04:45:00Z,26.6493,-81.8810,2.11,3.5,330.7,-9999.0,'1111122,1111122,1111122' 
SCCF RECON,ioos:station:SCCF:53:1,2014-11-01T05:00:00Z,26.6493,-81.8810,2.11,3.1,323.4,-9999.0,'1111122,1111122,1111122' 
SCCF RECON,ioos:station:SCCF:53:1,2014-11-01T05:15:00Z,26.6493,-81.8810,2.11,3.5,348.4,-9999.0,'1111122,1111122,1111122' 
SCCF RECON,ioos:station:SCCF:53:1,2014-11-01T05:30:00Z,26.6493,-81.8810,2.11,4.1,338.4,-9999.0,'1111122,1111122,1111122' 
SCCF RECON,ioos:station:SCCF:53:1,2014-11-01T05:45:00Z,26.6493,-81.8810,2.11,3.0,341.5,-9999.0,'1111122,1111122,1111122' 
SCCF RECON,ioos:station:SCCF:53:1,2014-11-01T06:00:00Z,26.6493,-81.8810,2.11,3.8,351.8,-9999.0,'1111122,1111122,1111122' 
SCCF RECON,ioos:station:SCCF:53:1,2014-11-01T06:15:00Z,26.6493,-81.8810,2.11,3.6,337.7,-9999.0,'1111122,1111122,1111122' 
SCCF RECON,ioos:station:SCCF:53:1,2014-11-01T06:30:00Z,26.6493,-81.8810,2.11,3.3,340.3,-9999.0,'1111122,1111122,1111122' 
SCCF RECON,ioos:station:SCCF:53:1,2014-11-01T06:45:00Z,26.6493,-81.8810,2.11,2.7,348.3,-9999.0,'1111122,1111122,1111122' 
SCCF RECON,ioos:station:SCCF:53:1,2014-11-01T07:00:00Z,26.6493,-81.8810,2.11,2.4,353.4,-9999.0,'1111122,1111122,1111122' 
SCCF RECON,ioos:station:SCCF:53:1,2014-11-01T07:15:00Z,26.6493,-81.8810,2.11,2.4,3.8,-9999.0,'1111122,1111122,1111122' 
SCCF RECON,ioos:station:SCCF:53:1,2014-11-01T07:30:00Z,26.6493,-81.8810,2.11,2.2,354.7,-9999.0,'1111122,1111122,1111122' 
SCCF RECON,ioos:station:SCCF:53:1,2014-11-01T07:45:00Z,26.6493,-81.8810,2.11,1.6,346.8,-9999.0,'1111122,1111122,1111122' 
SCCF RECON,ioos:station:SCCF:53:1,2014-11-01T08:00:00Z,26.6493,-81.8810,2.11,1.6,353.3,-9999.0,'1111122,1111122,1111122' 
SCCF RECON,ioos:station:SCCF:53:1,2014-11-01T08:15:00Z,26.6493,-81.8810,2.11,0.9,1.9,-9999.0,'1111122,1111122,1111122' 
SCCF RECON,ioos:station:SCCF:53:1,2014-11-01T08:30:00Z,26.6493,-81.8810,2.11,0.7,304.6,-9999.0,'1111122,1111122,1111122' 
SCCF RECON,ioos:station:SCCF:53:1,2014-11-01T08:45:00Z,26.6493,-81.8810,2.11,0.4,331.3,-9999.0,'1111122,1111122,1111122' 
SCCF RECON,ioos:station:SCCF:53:1,2014-11-01T09:00:00Z,26.6493,-81.8810,2.11,1.3,151.4,-9999.0,'1111122,1111122,1111122' 
SCCF RECON,ioos:station:SCCF:53:1,2014-11-01T09:15:00Z,26.6493,-81.8810,2.11,1.6,148.2,-9999.0,'1111122,1111122,1111122' 
SCCF RECON,ioos:station:SCCF:53:1,2014-11-01T09:30:00Z,26.6493,-81.8810,2.11,1.3,151.1,-9999.0,'1111122,1111122,1111122' 
SCCF RECON,ioos:station:SCCF:53:1,2014-11-01T09:45:00Z,26.6493,-81.8810,2.11,1.2,143.4,-9999.0,'1111122,1111122,1111122' 
SCCF RECON,ioos:station:SCCF:53:1,2014-11-01T10:00:00Z,26.6493,-81.8810,2.11,1.7,150.9,-9999.0,'1111122,1111122,1111122' 
SCCF RECON,ioos:station:SCCF:53:1,2014-11-01T10:15:00Z,26.6493,-81.8810,2.11,1.1,139.2,-9999.0,'1111122,1111122,1111122' 
SCCF RECON,ioos:station:SCCF:53:1,2014-11-01T10:30:00Z,26.6493,-81.8810,2.11,1.6,150.3,-9999.0,'1111122,1111122,1111122' 
SCCF RECON,ioos:station:SCCF:53:1,2014-11-01T10:45:00Z,26.6493,-81.8810,2.11,1.4,160.7,-9999.0,'1111122,1111122,1111122' 
SCCF RECON,ioos:station:SCCF:53:1,2014-11-01T11:00:00Z,26.6493,-81.8810,2.11,1.3,165.6,-9999.0,'1111122,1111122,1111122' 
SCCF RECON,ioos:station:SCCF:53:1,2014-11-01T11:15:00Z,26.6493,-81.8810,2.11,1.9,301.5,-9999.0,'1111122,1111122,1111122' 
SCCF RECON,ioos:station:SCCF:53:1,2014-11-01T11:30:00Z,26.6493,-81.8810,2.11,2.6,300.4,-9999.0,'1111122,1111122,1111122' 
SCCF RECON,ioos:station:SCCF:53:1,2014-11-01T11:45:00Z,26.6493,-81.8810,2.11,4.0,326.2,-9999.0,'1111122,1111122,1111122' 
SCCF RECON,ioos:station:SCCF:53:1,2014-11-01T12:00:00Z,26.6493,-81.8810,2.11,4.6,336.3,-9999.0,'1111122,1111122,1111122' 
SCCF RECON,ioos:station:SCCF:53:1,2014-11-01T12:15:00Z,26.6493,-81.8810,2.11,4.1,332.2,-9999.0,'1111122,1111122,1111122' 
SCCF RECON,ioos:station:SCCF:53:1,2014-11-01T12:30:00Z,26.6493,-81.8810,2.11,3.3,333.2,-9999.0,'1111122,1111122,1111122' 
SCCF RECON,ioos:station:SCCF:53:1,2014-11-01T12:45:00Z,26.6493,-81.8810,2.11,6.3,341.1,-9999.0,'1111122,1111122,1111122' 
SCCF RECON,ioos:station:SCCF:53:1,2014-11-01T13:00:00Z,26.6493,-81.8810,2.11,7.0,354.1,-9999.0,'1111122,1111122,1111122' 
SCCF RECON,ioos:station:SCCF:53:1,2014-11-01T13:15:00Z,26.6493,-81.8810,2.11,7.4,0.1,-9999.0,'1111122,1111122,1111122' 
SCCF RECON,ioos:station:SCCF:53:1,2014-11-01T13:30:00Z,26.6493,-81.8810,2.11,7.9,20.9,-9999.0,'1111122,1111122,1111122' 
SCCF RECON,ioos:station:SCCF:53:1,2014-11-01T13:45:00Z,26.6493,-81.8810,2.11,7.3,1.4,-9999.0,'1111122,1111122,1111122' 
SCCF RECON,ioos:station:SCCF:53:1,2014-11-01T14:00:00Z,26.6493,-81.8810,2.11,5.1,2.2,-9999.0,'1111122,1111122,1111122' 
SCCF RECON,ioos:station:SCCF:53:1,2014-11-01T14:15:00Z,26.6493,-81.8810,2.11,5.5,348.8,-9999.0,'1111122,1111122,1111122' 
SCCF RECON,ioos:station:SCCF:53:1,2014-11-01T14:30:00Z,26.6493,-81.8810,2.11,7.3,341.5,-9999.0,'1111122,1111122,1111122' 
SCCF RECON,ioos:station:SCCF:53:1,2014-11-01T14:45:00Z,26.6493,-81.8810,2.11,5.9,329.2,-9999.0,'1111122,1111122,1111122' 
SCCF RECON,ioos:station:SCCF:53:1,2014-11-01T15:00:00Z,26.6493,-81.8810,2.11,5.6,323.9,-9999.0,'1111122,1111122,1111122' 
SCCF RECON,ioos:station:SCCF:53:1,2014-11-01T15:15:00Z,26.6493,-81.8810,2.11,4.1,320.9,-9999.0,'1111122,1111122,1111122' 
SCCF RECON,ioos:station:SCCF:53:1,2014-11-01T15:30:00Z,26.6493,-81.8810,2.11,6.3,323.5,-9999.0,'1111122,1111122,1111122' 
SCCF RECON,ioos:station:SCCF:53:1,2014-11-01T15:45:00Z,26.6493,-81.8810,2.11,8.1,287.6,-9999.0,'1111122,1111122,1111122' 
SCCF RECON,ioos:station:SCCF:53:1,2014-11-01T16:00:00Z,26.6493,-81.8810,2.11,3.6,317.8,-9999.0,'1111122,1111122,1111122' 
SCCF RECON,ioos:station:SCCF:53:1,2014-11-01T16:15:00Z,26.6493,-81.8810,2.11,7.3,304.9,-9999.0,'1111122,1111122,1111122' 
SCCF RECON,ioos:station:SCCF:53:1,2014-11-01T16:30:00Z,26.6493,-81.8810,2.11,10.2,322.6,-9999.0,'1111122,1111122,1111122' 
SCCF RECON,ioos:station:SCCF:53:1,2014-11-01T16:45:00Z,26.6493,-81.8810,2.11,5.5,317.1,-9999.0,'1111122,1111122,1111122' 
SCCF RECON,ioos:station:SCCF:53:1,2014-11-01T17:00:00Z,26.6493,-81.8810,2.11,8.6,294.5,-9999.0,'1111122,1111122,1111122' 
SCCF RECON,ioos:station:SCCF:53:1,2014-11-01T17:15:00Z,26.6493,-81.8810,2.11,8.4,286.0,-9999.0,'1111122,1111122,1111122' 
SCCF RECON,ioos:station:SCCF:53:1,2014-11-01T17:30:00Z,26.6493,-81.8810,2.11,6.8,306.9,-9999.0,'1111122,1111122,1111122' 
SCCF RECON,ioos:station:SCCF:53:1,2014-11-01T17:45:00Z,26.6493,-81.8810,2.11,6.0,316.5,-9999.0,'1111122,1111122,1111122' 
SCCF RECON,ioos:station:SCCF:53:1,2014-11-01T18:00:00Z,26.6493,-81.8810,2.11,5.8,341.7,-9999.0,'1111122,1111122,1111122' 
SCCF RECON,ioos:station:SCCF:53:1,2014-11-01T18:15:00Z,26.6493,-81.8810,2.11,5.9,310.6,-9999.0,'1111122,1111122,1111122' 
SCCF RECON,ioos:station:SCCF:53:1,2014-11-01T18:30:00Z,26.6493,-81.8810,2.11,7.0,326.8,-9999.0,'1111122,1111122,1111122' 
SCCF RECON,ioos:station:SCCF:53:1,2014-11-01T18:45:00Z,26.6493,-81.8810,2.11,6.3,321.2,-9999.0,'1111122,1111122,1111122' 
SCCF RECON,ioos:station:SCCF:53:1,2014-11-01T19:00:00Z,26.6493,-81.8810,2.11,5.9,323.7,-9999.0,'1111122,1111122,1111122' 
SCCF RECON,ioos:station:SCCF:53:1,2014-11-01T19:15:00Z,26.6493,-81.8810,2.11,7.0,318.6,-9999.0,'1111122,1111122,1111122' 
SCCF RECON,ioos:station:SCCF:53:1,2014-11-01T19:30:00Z,26.6493,-81.8810,2.11,9.0,335.0,-9999.0,'1111122,1111122,1111122' 
SCCF RECON,ioos:station:SCCF:53:1,2014-11-01T19:45:00Z,26.6493,-81.8810,2.11,7.8,323.7,-9999.0,'1111122,1111122,1111122' 
SCCF RECON,ioos:station:SCCF:53:1,2014-11-01T20:00:00Z,26.6493,-81.8810,2.11,7.9,329.7,-9999.0,'1111122,1111122,1111122' 
SCCF RECON,ioos:station:SCCF:53:1,2014-11-01T20:15:00Z,26.6493,-81.8810,2.11,7.6,333.9,-9999.0,'1111122,1111122,1111122' 
SCCF RECON,ioos:station:SCCF:53:1,2014-11-01T20:30:00Z,26.6493,-81.8810,2.11,7.0,288.9,-9999.0,'1111122,1111122,1111122' 
SCCF RECON,ioos:station:SCCF:53:1,2014-11-01T20:45:00Z,26.6493,-81.8810,2.11,6.6,320.4,-9999.0,'1111122,1111122,1111122' 
SCCF RECON,ioos:station:SCCF:53:1,2014-11-01T21:00:00Z,26.6493,-81.8810,2.11,5.8,298.1,-9999.0,'1111122,1111122,1111122' 
SCCF RECON,ioos:station:SCCF:53:1,2014-11-01T21:15:00Z,26.6493,-81.8810,2.11,5.5,323.1,-9999.0,'1111122,1111122,1111122' 
SCCF RECON,ioos:station:SCCF:53:1,2014-11-01T21:30:00Z,26.6493,-81.8810,2.11,7.4,292.9,-9999.0,'1111122,1111122,1111122' 
SCCF RECON,ioos:station:SCCF:53:1,2014-11-01T21:45:00Z,26.6493,-81.8810,2.11,7.2,341.6,-9999.0,'1111122,1111122,1111122' 
SCCF RECON,ioos:station:SCCF:53:1,2014-11-01T22:00:00Z,26.6493,-81.8810,2.11,5.4,325.6,-9999.0,'1111122,1111122,1111122' 
SCCF RECON,ioos:station:SCCF:53:1,2014-11-01T22:15:00Z,26.6493,-81.8810,2.11,10.2,336.8,-9999.0,'1111122,1111122,1111122' 
SCCF RECON,ioos:station:SCCF:53:1,2014-11-01T22:30:00Z,26.6493,-81.8810,2.11,9.6,337.5,-9999.0,'1111122,1111122,1111122' 
SCCF RECON,ioos:station:SCCF:53:1,2014-11-01T22:45:00Z,26.6493,-81.8810,2.11,5.4,338.2,-9999.0,'1111122,1111122,1111122' 
SCCF RECON,ioos:station:SCCF:53:1,2014-11-01T23:00:00Z,26.6493,-81.8810,2.11,5.7,327.2,-9999.0,'1111122,1111122,1111122' 
SCCF RECON,ioos:station:SCCF:53:1,2014-11-01T23:15:00Z,26.6493,-81.8810,2.11,5.9,332.0,-9999.0,'1111122,1111122,1111122' 
SCCF RECON,ioos:station:SCCF:53:1,2014-11-01T23:30:00Z,26.6493,-81.8810,2.11,5.7,337.3,-9999.0,'1111122,1111122,1111122' 
SCCF RECON,ioos:station:SCCF:53:1,2014-11-01T23:45:00Z,26.6493,-81.8810,2.11,6.0,328.1,-9999.0,'1111122,1111122,1111122' 
SCCF RECON,ioos:station:SCCF:53:1,2014-11-02T00:00:00Z,26.6493,-81.8810,2.11,4.1,344.4,-9999.0,'1111122,1111122,1111122' 
SCCF RECON,ioos:station:SCCF:53:1,2014-11-02T00:15:00Z,26.6493,-81.8810,2.11,5.1,352.1,-9999.0,'1111122,1111122,1111122' 
SCCF RECON,ioos:station:SCCF:53:1,2014-11-02T00:30:00Z,26.6493,-81.8810,2.11,5.1,354.2,-9999.0,'1111122,1111122,1111122' 
SCCF RECON,ioos:station:SCCF:53:1,2014-11-02T00:45:00Z,26.6493,-81.8810,2.11,5.1,346.0,-9999.0,'1111122,1111122,1111122' 
SCCF RECON,ioos:station:SCCF:53:1,2014-11-02T01:00:00Z,26.6493,-81.8810,2.11,4.5,339.4,-9999.0,'1111122,1111122,1111122' 
SCCF RECON,ioos:station:SCCF:53:1,2014-11-02T01:15:00Z,26.6493,-81.8810,2.11,4.6,342.8,-9999.0,'1111122,1111122,1111122' 
SCCF RECON,ioos:station:SCCF:53:1,2014-11-02T01:30:00Z,26.6493,-81.8810,2.11,4.1,340.4,-9999.0,'1111122,1111122,1111122' 
SCCF RECON,ioos:station:SCCF:53:1,2014-11-02T01:45:00Z,26.6493,-81.8810,2.11,4.3,350.5,-9999.0,'1111122,1111122,1111122' 
SCCF RECON,ioos:station:SCCF:53:1,2014-11-02T02:00:00Z,26.6493,-81.8810,2.11,3.8,331.3,-9999.0,'1111122,1111122,1111122' 
SCCF RECON,ioos:station:SCCF:53:1,2014-11-02T02:15:00Z,26.6493,-81.8810,2.11,3.7,343.2,-9999.0,'1111122,1111122,1111122' 
SCCF RECON,ioos:station:SCCF:53:1,2014-11-02T02:30:00Z,26.6493,-81.8810,2.11,3.8,342.7,-9999.0,'1111122,1111122,1111122' 
SCCF RECON,ioos:station:SCCF:53:1,2014-11-02T02:45:00Z,26.6493,-81.8810,2.11,5.1,0.2,-9999.0,'1111122,1111122,1111122' 
SCCF RECON,ioos:station:SCCF:53:1,2014-11-02T03:00:00Z,26.6493,-81.8810,2.11,4.6,12.3,-9999.0,'1111122,1111122,1111122' 
SCCF RECON,ioos:station:SCCF:53:1,2014-11-02T03:15:00Z,26.6493,-81.8810,2.11,4.5,19.8,-9999.0,'1111122,1111122,1111122' 
SCCF RECON,ioos:station:SCCF:53:1,2014-11-02T03:30:00Z,26.6493,-81.8810,2.11,5.1,8.3,-9999.0,'1111122,1111122,1111122' 
SCCF RECON,ioos:station:SCCF:53:1,2014-11-02T03:45:00Z,26.6493,-81.8810,2.11,5.5,16.7,-9999.0,'1111122,1111122,1111122' 
SCCF RECON,ioos:station:SCCF:53:1,2014-11-02T04:00:00Z,26.6493,-81.8810,2.11,6.6,13.6,-9999.0,'1111122,1111122,1111122' 
SCCF RECON,ioos:station:SCCF:53:1,2014-11-02T04:15:00Z,26.6493,-81.8810,2.11,6.0,20.1,-9999.0,'1111122,1111122,1111122' 
SCCF RECON,ioos:station:SCCF:53:1,2014-11-02T04:30:00Z,26.6493,-81.8810,2.11,6.3,8.0,-9999.0,'1111122,1111122,1111122' 
SCCF RECON,ioos:station:SCCF:53:1,2014-11-02T04:45:00Z,26.6493,-81.8810,2.11,5.2,19.6,-9999.0,'1111122,1111122,1111122' 
SCCF RECON,ioos:station:SCCF:53:1,2014-11-02T05:00:00Z,26.6493,-81.8810,2.11,5.3,16.6,-9999.0,'1111122,1111122,1111122' 
SCCF RECON,ioos:station:SCCF:53:1,2014-11-02T05:15:00Z,26.6493,-81.8810,2.11,5.5,13.4,-9999.0,'1111122,1111122,1111122' 
SCCF RECON,ioos:station:SCCF:53:1,2014-11-02T05:30:00Z,26.6493,-81.8810,2.11,6.2,9.7,-9999.0,'1111122,1111122,1111122' 
SCCF RECON,ioos:station:SCCF:53:1,2014-11-02T05:45:00Z,26.6493,-81.8810,2.11,4.2,27.2,-9999.0,'1111122,1111122,1111122' 
SCCF RECON,ioos:station:SCCF:53:1,2014-11-02T06:00:00Z,26.6493,-81.8810,2.11,5.4,11.7,-9999.0,'1111122,1111122,1111122' 
SCCF RECON,ioos:station:SCCF:53:1,2014-11-02T06:15:00Z,26.6493,-81.8810,2.11,5.0,5.5,-9999.0,'1111122,1111122,1111122' 
SCCF RECON,ioos:station:SCCF:53:1,2014-11-02T06:30:00Z,26.6493,-81.8810,2.11,5.2,3.8,-9999.0,'1111122,1111122,1111122' 
SCCF RECON,ioos:station:SCCF:53:1,2014-11-02T06:45:00Z,26.6493,-81.8810,2.11,5.1,1.4,-9999.0,'1111122,1111122,1111122' 
SCCF RECON,ioos:station:SCCF:53:1,2014-11-02T07:00:00Z,26.6493,-81.8810,2.11,5.0,0.7,-9999.0,'1111122,1111122,1111122' 
SCCF RECON,ioos:station:SCCF:53:1,2014-11-02T07:15:00Z,26.6493,-81.8810,2.11,4.9,5.6,-9999.0,'1111122,1111122,1111122' 
SCCF RECON,ioos:station:SCCF:53:1,2014-11-02T07:30:00Z,26.6493,-81.8810,2.11,4.6,0.1,-9999.0,'1111122,1111122,1111122' 
SCCF RECON,ioos:station:SCCF:53:1,2014-11-02T07:45:00Z,26.6493,-81.8810,2.11,4.0,3.7,-9999.0,'1111122,1111122,1111122' 
SCCF RECON,ioos:station:SCCF:53:1,2014-11-02T08:00:00Z,26.6493,-81.8810,2.11,3.6,353.5,-9999.0,'1111122,1111122,1111122' 
SCCF RECON,ioos:station:SCCF:53:1,2014-11-02T08:15:00Z,26.6493,-81.8810,2.11,4.9,354.9,-9999.0,'1111122,1111122,1111122' 
SCCF RECON,ioos:station:SCCF:53:1,2014-11-02T08:30:00Z,26.6493,-81.8810,2.11,5.4,8.4,-9999.0,'1111122,1111122,1111122' 
SCCF RECON,ioos:station:SCCF:53:1,2014-11-02T08:45:00Z,26.6493,-81.8810,2.11,5.9,0.1,-9999.0,'1111122,1111122,1111122' 
SCCF RECON,ioos:station:SCCF:53:1,2014-11-02T09:00:00Z,26.6493,-81.8810,2.11,5.3,4.6,-9999.0,'1111122,1111122,1111122' 
SCCF RECON,ioos:station:SCCF:53:1,2014-11-02T09:15:00Z,26.6493,-81.8810,2.11,5.1,19.9,-9999.0,'1111122,1111122,1111122' 
SCCF RECON,ioos:station:SCCF:53:1,2014-11-02T09:30:00Z,26.6493,-81.8810,2.11,4.4,12.4,-9999.0,'1111122,1111122,1111122' 
SCCF RECON,ioos:station:SCCF:53:1,2014-11-02T09:45:00Z,26.6493,-81.8810,2.11,6.0,12.3,-9999.0,'1111122,1111122,1111122' 
SCCF RECON,ioos:station:SCCF:53:1,2014-11-02T10:00:00Z,26.6493,-81.8810,2.11,5.9,18.2,-9999.0,'1111122,1111122,1111122' 
SCCF RECON,ioos:station:SCCF:53:1,2014-11-02T10:15:00Z,26.6493,-81.8810,2.11,5.5,4.8,-9999.0,'1111122,1111122,1111122' 
SCCF RECON,ioos:station:SCCF:53:1,2014-11-02T10:30:00Z,26.6493,-81.8810,2.11,6.3,4.5,-9999.0,'1111122,1111122,1111122' 
SCCF RECON,ioos:station:SCCF:53:1,2014-11-02T10:45:00Z,26.6493,-81.8810,2.11,4.9,14.0,-9999.0,'1111122,1111122,1111122' 
SCCF RECON,ioos:station:SCCF:53:1,2014-11-02T11:00:00Z,26.6493,-81.8810,2.11,4.9,21.2,-9999.0,'1111122,1111122,1111122' 
SCCF RECON,ioos:station:SCCF:53:1,2014-11-02T11:15:00Z,26.6493,-81.8810,2.11,5.0,12.7,-9999.0,'1111122,1111122,1111122' 
SCCF RECON,ioos:station:SCCF:53:1,2014-11-02T11:30:00Z,26.6493,-81.8810,2.11,5.9,29.1,-9999.0,'1111122,1111122,1111122' 
SCCF RECON,ioos:station:SCCF:53:1,2014-11-02T11:45:00Z,26.6493,-81.8810,2.11,5.5,26.0,-9999.0,'1111122,1111122,1111122' 
SCCF RECON,ioos:station:SCCF:53:1,2014-11-02T12:00:00Z,26.6493,-81.8810,2.11,5.0,29.2,-9999.0,'1111122,1111122,1111122' 
SCCF RECON,ioos:station:SCCF:53:1,2014-11-02T12:15:00Z,26.6493,-81.8810,2.11,4.9,32.7,-9999.0,'1111122,1111122,1111122' 
SCCF RECON,ioos:station:SCCF:53:1,2014-11-02T12:30:00Z,26.6493,-81.8810,2.11,4.5,20.5,-9999.0,'1111122,1111122,1111122' 
SCCF RECON,ioos:station:SCCF:53:1,2014-11-02T12:45:00Z,26.6493,-81.8810,2.11,5.0,31.8,-9999.0,'1111122,1111122,1111122' 
SCCF RECON,ioos:station:SCCF:53:1,2014-11-02T13:00:00Z,26.6493,-81.8810,2.11,5.4,7.6,-9999.0,'1111122,1111122,1111122' 
SCCF RECON,ioos:station:SCCF:53:1,2014-11-02T13:15:00Z,26.6493,-81.8810,2.11,5.6,22.9,-9999.0,'1111122,1111122,1111122' 
SCCF RECON,ioos:station:SCCF:53:1,2014-11-02T13:30:00Z,26.6493,-81.8810,2.11,4.6,16.1,-9999.0,'1111122,1111122,1111122' 
SCCF RECON,ioos:station:SCCF:53:1,2014-11-02T13:45:00Z,26.6493,-81.8810,2.11,5.5,22.2,-9999.0,'1111122,1111122,1111122' 
SCCF RECON,ioos:station:SCCF:53:1,2014-11-02T14:00:00Z,26.6493,-81.8810,2.11,3.5,22.3,-9999.0,'1111122,1111122,1111122' 
SCCF RECON,ioos:station:SCCF:53:1,2014-11-02T14:15:00Z,26.6493,-81.8810,2.11,4.4,15.9,-9999.0,'1111122,1111122,1111122' 
SCCF RECON,ioos:station:SCCF:53:1,2014-11-02T14:30:00Z,26.6493,-81.8810,2.11,4.0,8.1,-9999.0,'1111122,1111122,1111122' 
SCCF RECON,ioos:station:SCCF:53:1,2014-11-02T14:45:00Z,26.6493,-81.8810,2.11,5.5,6.8,-9999.0,'1111122,1111122,1111122' 
SCCF RECON,ioos:station:SCCF:53:1,2014-11-02T15:00:00Z,26.6493,-81.8810,2.11,4.8,2.4,-9999.0,'1111122,1111122,1111122' 
SCCF RECON,ioos:station:SCCF:53:1,2014-11-02T15:15:00Z,26.6493,-81.8810,2.11,5.9,8.7,-9999.0,'1111122,1111122,1111122' 
SCCF RECON,ioos:station:SCCF:53:1,2014-11-02T15:30:00Z,26.6493,-81.8810,2.11,4.2,20.8,-9999.0,'1111122,1111122,1111122' 
SCCF RECON,ioos:station:SCCF:53:1,2014-11-02T15:45:00Z,26.6493,-81.8810,2.11,5.2,44.8,-9999.0,'1111122,1111122,1111122' 
SCCF RECON,ioos:station:SCCF:53:1,2014-11-02T16:00:00Z,26.6493,-81.8810,2.11,4.3,46.3,-9999.0,'1111122,1111122,1111122' 
SCCF RECON,ioos:station:SCCF:53:1,2014-11-02T16:15:00Z,26.6493,-81.8810,2.11,3.6,17.4,-9999.0,'1111122,1111122,1111122' 
SCCF RECON,ioos:station:SCCF:53:1,2014-11-02T16:30:00Z,26.6493,-81.8810,2.11,2.7,22.6,-9999.0,'1111122,1111122,1111122' 
SCCF RECON,ioos:station:SCCF:53:1,2014-11-02T16:45:00Z,26.6493,-81.8810,2.11,2.6,22.9,-9999.0,'1111122,1111122,1111122' 
SCCF RECON,ioos:station:SCCF:53:1,2014-11-02T17:00:00Z,26.6493,-81.8810,2.11,2.6,41.0,-9999.0,'1111122,1111122,1111122' 
SCCF RECON,ioos:station:SCCF:53:1,2014-11-02T17:15:00Z,26.6493,-81.8810,2.11,5.1,34.6,-9999.0,'1111122,1111122,1111122' 
SCCF RECON,ioos:station:SCCF:53:1,2014-11-02T17:30:00Z,26.6493,-81.8810,2.11,4.4,32.5,-9999.0,'1111122,1111122,1111122' 
SCCF RECON,ioos:station:SCCF:53:1,2014-11-02T17:45:00Z,26.6493,-81.8810,2.11,3.1,20.2,-9999.0,'1111122,1111122,1111122' 
SCCF RECON,ioos:station:SCCF:53:1,2014-11-02T18:00:00Z,26.6493,-81.8810,2.11,4.8,36.5,-9999.0,'1111122,1111122,1111122' 
SCCF RECON,ioos:station:SCCF:53:1,2014-11-02T18:15:00Z,26.6493,-81.8810,2.11,3.5,14.0,-9999.0,'1111122,1111122,1111122' 
SCCF RECON,ioos:station:SCCF:53:1,2014-11-02T18:30:00Z,26.6493,-81.8810,2.11,5.8,10.7,-9999.0,'1111122,1111122,1111122' 
SCCF RECON,ioos:station:SCCF:53:1,2014-11-02T18:45:00Z,26.6493,-81.8810,2.11,4.1,24.6,-9999.0,'1111122,1111122,1111122' 
SCCF RECON,ioos:station:SCCF:53:1,2014-11-02T19:00:00Z,26.6493,-81.8810,2.11,5.6,33.4,-9999.0,'1111122,1111122,1111122' 
SCCF RECON,ioos:station:SCCF:53:1,2014-11-02T19:15:00Z,26.6493,-81.8810,2.11,6.1,351.5,-9999.0,'1111122,1111122,1111122' 
SCCF RECON,ioos:station:SCCF:53:1,2014-11-02T19:30:00Z,26.6493,-81.8810,2.11,3.8,42.2,-9999.0,'1111122,1111122,1111122' 
SCCF RECON,ioos:station:SCCF:53:1,2014-11-02T19:45:00Z,26.6493,-81.8810,2.11,5.9,30.1,-9999.0,'1111122,1111122,1111122' 
SCCF RECON,ioos:station:SCCF:53:1,2014-11-02T20:00:00Z,26.6493,-81.8810,2.11,6.4,26.2,-9999.0,'1111122,1111122,1111122' 
SCCF RECON,ioos:station:SCCF:53:1,2014-11-02T20:15:00Z,26.6493,-81.8810,2.11,2.5,42.3,-9999.0,'1111122,1111122,1111122' 
SCCF RECON,ioos:station:SCCF:53:1,2014-11-02T20:30:00Z,26.6493,-81.8810,2.11,2.8,47.3,-9999.0,'1111122,1111122,1111122' 
SCCF RECON,ioos:station:SCCF:53:1,2014-11-02T20:45:00Z,26.6493,-81.8810,2.11,5.4,13.6,-9999.0,'1111122,1111122,1111122' 
SCCF RECON,ioos:station:SCCF:53:1,2014-11-02T21:00:00Z,26.6493,-81.8810,2.11,4.5,20.4,-9999.0,'1111122,1111122,1111122' 
SCCF RECON,ioos:station:SCCF:53:1,2014-11-02T21:15:00Z,26.6493,-81.8810,2.11,2.1,24.0,-9999.0,'1111122,1111122,1111122' 
SCCF RECON,ioos:station:SCCF:53:1,2014-11-02T21:30:00Z,26.6493,-81.8810,2.11,4.1,46.2,-9999.0,'1111122,1111122,1111122' 
SCCF RECON,ioos:station:SCCF:53:1,2014-11-02T21:45:00Z,26.6493,-81.8810,2.11,5.4,18.2,-9999.0,'1111122,1111122,1111122' 
SCCF RECON,ioos:station:SCCF:53:1,2014-11-02T22:00:00Z,26.6493,-81.8810,2.11,5.4,7.9,-9999.0,'1111122,1111122,1111122' 
SCCF RECON,ioos:station:SCCF:53:1,2014-11-02T22:15:00Z,26.6493,-81.8810,2.11,5.0,11.9,-9999.0,'1111122,1111122,1111122' 
SCCF RECON,ioos:station:SCCF:53:1,2014-11-02T22:30:00Z,26.6493,-81.8810,2.11,4.4,15.3,-9999.0,'1111122,1111122,1111122' 
SCCF RECON,ioos:station:SCCF:53:1,2014-11-02T22:45:00Z,26.6493,-81.8810,2.11,3.7,12.8,-9999.0,'1111122,1111122,1111122' 
SCCF RECON,ioos:station:SCCF:53:1,2014-11-02T23:00:00Z,26.6493,-81.8810,2.11,4.0,18.3,-9999.0,'1111122,1111122,1111122' 
SCCF RECON,ioos:station:SCCF:53:1,2014-11-02T23:15:00Z,26.6493,-81.8810,2.11,3.5,24.7,-9999.0,'1111122,1111122,1111122' 
SCCF RECON,ioos:station:SCCF:53:1,2014-11-02T23:30:00Z,26.6493,-81.8810,2.11,3.4,17.2,-9999.0,'1111122,1111122,1111122' 
SCCF RECON,ioos:station:SCCF:53:1,2014-11-02T23:45:00Z,26.6493,-81.8810,2.11,3.1,14.7,-9999.0,'1111122,1111122,1111122' 
SCCF RECON,ioos:station:SCCF:53:1,2014-11-03T00:00:00Z,26.6493,-81.8810,2.11,2.9,23.2,-9999.0,'1111122,1111122,1111122' 
SCCF RECON,ioos:station:SCCF:53:1,2014-11-03T00:15:00Z,26.6493,-81.8810,2.11,3.0,6.7,-9999.0,'1111122,1111122,1111122' 
SCCF RECON,ioos:station:SCCF:53:1,2014-11-03T00:30:00Z,26.6493,-81.8810,2.11,3.3,8.4,-9999.0,'1111122,1111122,1111122' 
SCCF RECON,ioos:station:SCCF:53:1,2014-11-03T00:45:00Z,26.6493,-81.8810,2.11,3.7,13.1,-9999.0,'1111122,1111122,1111122' 